Location: Casilda
(33.0440°S, 61.1680°W)
Time: 04:20:25
(UTC-03:00)

ISS - Pass Details

Date: 13 September 2017
Orbit: 401 x 407 km, 51.6° (Epoch: 23 September)

Event Time Altitude Azimuth Distance (km) Brightness Sun altitude
Rises 19:50:35 0° 218° (SW) 2,345 0.7 -12.4°
Reaches altitude 10° 19:52:49 10° 208° (SSW) 1,479 -0.5 -12.9°
Maximum altitude 19:55:52 34° 141° (SE) 698 -2.9 -13.5°
Enters shadow 19:57:00 26° 100° (E) 844 -2.8 -13.7°
